カタログに戻る

STARLINK-2217

運用中通信VLEO
NORAD 48568·PAYLOAD·🇺🇸 United States

打ち上げ May 15, 2021 から Cape Canaveral Space Force Station

Loading…

次のパス (今後24時間)

TLE

最新Source: CelesTrak SupGP

元期: Sep 14, 2026, 14:31 UTC

1 48568C 21041R   26257.60534722  .00043929  00000+0  14122-2 0  2575
2 48568  53.1589 327.9754 0001090  77.5192 254.6004 15.31689824    11

AllMySatでSTARLINK-2217をリアルタイム追跡

Download on the App Store